AEROCUBE 8D

Last updated on Sat Aug 15 2026 00:03:44 GMT+0000 (Coordinated Universal Time)

1 41852U 16067E 26226.62709100 .00003950 00000+0 16105-3 0 9995 2 41852 98.0586 101.2510 0001977 315.1665 44.9411 15.25121304534974
UTC large
Height (km)
Speed (km/s)
/
Latitude / Longitude
Inclination (degrees)
Orbital Period (minutes)
Azimuth
Elevation
Range (km)
Doppler Factor

Next 0 passes for location: London (51.5072 / 0.1276)

No passes found over London.
AEROCUBE 8D